Probability
0 0 0 0 0 0 0 0 0 0 0 0 0 0 0 0 0 0 0 0 0 0 0 0 0 0 0 0 0 0 0 0 0 0 0 0 0 0 0 0 0 0 0
0 0 0 0 0 0 0 0 0 0 0 0 0 0 0 0 0 0 0 0 0 0 0 0 0 0 0 0 0 0 0 0 0 0 0 0 0 0 0 0 0 0 0
0 0 0 0 0 0 0 0 0 0 0 0 0 0 0 0 0 0 0 0 0 0 0 0 0 0 0 0 0 0 0 0 0 0 0 0 0 0 0 0 0 0 0
0 0 0 0 0 0 0 0 0 0 0 0 0 0 0 0 0 0 0 0 0 0 0 0 0 0 0 0 0 0 0 0 0 0 0 0 0 0 0 0 0 0 0
0 0 0 0 0 0 0 0 0 0 0 0 0 0 0 0 0 0 0 0 0 0 0 0 0 0 0 0 0 0 0 0 0 0 0 0 0 0 0 0 0 0 0
0 0 0 0 0 0 0 0 0 0 0 0 0 0 0 0 0 0 0 0 0 0 0 0 0 0 0 0 0 0 0 0 0 0 0 0 0 0 0 0 0 0 0
0 0 0 0 0 0 0 0 0 0 0 0 0 0 0 0 0 0 0 0 0 0 0 0 0 0 0 0 0 0 0 0 0 0 0 0 0 0 0 0 0 0 0
0 0 0 0 0 0 0 0 0 0 0 0 0 0 0 0 0 0 0 0 0 0 0 0 0 0 0 0 0 0 0 0 0 0 0 0 0 0 0 0 0 0 0
0 0 0 0 0 0 0 0 0 0 0 0 0 0 0 0 0 0 0 0 0 0 0 0 0 0 0 0 0 0 0 0 0 0 0 0 0 0 0 0 0 0 0
0 0 0 0 0 0 0 0 0 0 0 0 0 0 0 0 0 0 0 0 0 0 0 0 0 0 0 0 0 0 0 0 0 0 0 0 0 0 0 0 0 0 0
0 0 0 0 0 0 0 0 0 0 0 0 0 0 0 0 0 0 0 0 0 0 0 0 0 0 0 0 0 0 0 0 0 0 0 0 0 0 0 0 0 0 0
0 0 0 0 0 0 0 0 0 0 0 0 0 0 0 0 0 0 0 0 0 0 0 0 0 0 0 0 0 0 0 0 0 0 0 0 0 0 0 0 0 0 0
0 0 0 0 0 0 0 0 0 0 0 0 0 0 0 0 0 0 0 0 0 0 0 0 0 0 0 0 0 0 0 0 0 0 0 0 0 0 0 0 0 0 0
0 0 0 0 0 0 0 0 0 0 0 0 0 0 0 0 0 0 0 0 0 0 0 0 0 0 0 0 0 0 0 0 0 0 0 0 0 0 0 0 0 0 0
0 0 0 0 0 0 0 0 0 0 0 0 0 0 0 0 0 0 0 0 0 0 0 0 0 0 0 0 0 0 0 0 0 0 0 0 0 0 0 0 0 0 0
0 0 0 0 0 0 0 0 0 0 0 0 0 0 0 0 0 0 0 0 0 0 0 0 0 0 0 0 0 0 0 0 0 0 0 0 0 0 0 0 0 0 0
0 0 0 0 0 0 0 0 0 0 0 0 0 0 0 0 0 0 0 0 0 0 0 0 0 0 0 0 0 0 0 0 0 0 0 0 0 0 0 0 0 0 0
0 0 0 0 0 0 0 0 0 0 0 0 0 0 0 0 0 0 0 0 0 0 0 0 0 0 0 0 0 0 0 0 0 0 0 0 0 0 0 0 0 0 0
0 0 0 0 0 0 0 0 0 0 0 0 0 0 0 0 0 0 0 0 0 0 0 0 0 0 0 0 0 0 0 0 0 0 0 0 0 0 0 0 0 0 0
0 0 0 0 0 0 0 0 0 0 0 0 0 0 0 0 0 0 0 0 0 0 0 0 0 0 0 0 0 0 0 0 0 0 0 0 0 0 0 0 0 0 0
0 0 0 0 0 0 0 0 0 0 0 0 0 0 0 0 0 0 0 0 0 0 0 0 0 0 0 0 0 0 0 0 0 0 0 0 0 0 0 0 0 0 0
0 0 0 0 0 0 0 0 0 0 0 0 0 0 0 0 0 0 0 0 0 0 0 0 0 0 0 0 0 0 0 0 0 0 0 0 0 0 0 0 0 0 0
0 0 0 0 0 0 0 0 0 0 0 0 0 0 0 0 0 0 0 0 0 0 0 0 0 0 0 0 0 0 0 0 0 0 0 0 0 0 0 0 0 0 0
0 0 0 0 0 0 0 0 0 0 0 0 0 0 0 0 0 0 0 0 0 0 0 0 0 0 0 0 0 0 0 0 0 0 0 0 0 0 0 0 0 0 0
0 0 0 0 0 0 0 0 0 0 0 0 0 0 0 0 0 0 0 0 0 0 0 0 0 0 0 0 0 0 0 0 0 0 0 0 0 0 0 0 0 0 0
0 0 0 0 0 0 0 0 0 0 0 0 0 0 0 0 0 0 0 0 0 0 0 0 0 0 0 0 0 0 0 0 0 0 0 0 0 0 0 0 0 0 0
Height
5787 5784 5781 5778 5775 5773 5770 5767 5764 5761 5758 5755 5751 5749 5746 5743 5741 5739 5737 5735 5733 5732 5731 5730 5729 5729 5728 5729 5729 5729 5730 5730 5731 5732 5733 5734 5736 5737 5739 5740 5742 5744 5746
5782 5779 5776 5772 5770 5767 5765 5762 5758 5755 5753 5750 5746 5744 5741 5738 5736 5733 5731 5729 5728 5726 5725 5724 5723 5723 5722 5722 5723 5723 5723 5723 5724 5725 5726 5727 5729 5730 5732 5733 5735 5737 5739
5777 5774 5771 5768 5765 5762 5760 5757 5753 5750 5747 5744 5741 5739 5736 5733 5730 5728 5726 5724 5723 5721 5719 5718 5717 5717 5716 5716 5716 5717 5717 5717 5718 5719 5720 5721 5722 5723 5725 5726 5728 5730 5732
5773 5769 5766 5764 5761 5758 5755 5752 5749 5746 5743 5740 5737 5734 5731 5728 5725 5723 5721 5719 5717 5716 5714 5713 5712 5711 5711 5710 5710 5711 5711 5712 5712 5713 5714 5715 5716 5717 5719 5720 5721 5723 5725
5769 5766 5763 5760 5757 5754 5751 5748 5745 5742 5738 5735 5732 5729 5726 5724 5721 5718 5716 5714 5712 5711 5709 5708 5707 5707 5706 5706 5705 5705 5705 5706 5706 5707 5708 5709 5710 5711 5713 5714 5715 5717 5718
5765 5762 5760 5757 5754 5751 5748 5745 5742 5738 5735 5732 5729 5726 5723 5720 5717 5714 5712 5710 5708 5706 5705 5704 5703 5702 5701 5701 5701 5700 5700 5701 5701 5702 5703 5704 5705 5706 5707 5708 5709 5711 5712
5762 5759 5756 5754 5751 5748 5745 5742 5739 5736 5732 5729 5726 5723 5719 5716 5713 5711 5708 5706 5704 5702 5701 5700 5699 5698 5697 5696 5696 5696 5696 5696 5697 5697 5698 5698 5699 5700 5702 5703 5704 5705 5707
5759 5756 5754 5751 5748 5745 5742 5739 5737 5734 5730 5727 5724 5720 5717 5714 5711 5708 5706 5703 5701 5699 5698 5696 5695 5694 5693 5692 5692 5692 5691 5692 5692 5693 5694 5694 5695 5696 5697 5699 5699 5701 5702
5756 5754 5751 5748 5745 5743 5740 5737 5735 5732 5729 5725 5722 5718 5715 5712 5709 5706 5703 5701 5699 5697 5695 5693 5692 5691 5690 5689 5689 5688 5688 5688 5689 5689 5690 5690 5691 5692 5693 5695 5696 5697 5698
5754 5752 5749 5746 5743 5741 5738 5736 5733 5730 5727 5724 5720 5717 5714 5711 5708 5705 5702 5700 5697 5695 5693 5691 5690 5688 5687 5686 5686 5685 5686 5686 5686 5686 5687 5687 5688 5689 5690 5691 5692 5693 5694
5753 5750 5747 5745 5742 5740 5737 5734 5732 5729 5726 5723 5719 5716 5713 5710 5707 5704 5701 5699 5696 5694 5692 5690 5688 5687 5685 5685 5684 5684 5684 5684 5684 5684 5685 5685 5686 5687 5687 5688 5689 5690 5691
5751 5749 5746 5744 5741 5739 5736 5734 5731 5728 5725 5722 5719 5716 5713 5710 5707 5704 5701 5699 5696 5694 5691 5689 5687 5686 5684 5684 5683 5682 5682 5682 5682 5683 5683 5684 5684 5684 5685 5685 5686 5687 5687
5750 5748 5745 5743 5741 5738 5736 5733 5730 5728 5725 5722 5719 5716 5713 5710 5707 5704 5702 5699 5696 5694 5691 5689 5687 5686 5684 5683 5682 5682 5681 5681 5681 5681 5682 5682 5683 5683 5683 5683 5683 5684 5684
5749 5747 5745 5743 5740 5738 5735 5733 5730 5728 5725 5722 5720 5717 5714 5711 5708 5705 5702 5699 5697 5694 5692 5690 5688 5686 5685 5683 5682 5682 5681 5680 5680 5681 5681 5681 5681 5681 5681 5681 5681 5682 5682
5748 5746 5744 5742 5740 5738 5735 5733 5730 5728 5725 5723 5720 5717 5714 5711 5708 5705 5702 5700 5697 5695 5693 5691 5689 5687 5685 5684 5683 5681 5680 5680 5680 5680 5680 5680 5680 5680 5680 5680 5680 5680 5680
5747 5746 5744 5742 5740 5738 5735 5733 5730 5728 5725 5723 5720 5718 5715 5712 5709 5706 5704 5701 5698 5696 5694 5692 5690 5688 5686 5685 5683 5682 5681 5680 5679 5679 5679 5679 5678 5678 5678 5678 5678 5678 5677
5747 5746 5744 5742 5740 5737 5735 5733 5731 5728 5725 5723 5721 5718 5715 5713 5710 5708 5705 5702 5700 5698 5696 5693 5691 5689 5687 5686 5684 5683 5682 5681 5680 5679 5678 5677 5677 5677 5676 5676 5676 5675 5675
5747 5746 5744 5742 5740 5738 5736 5733 5731 5728 5726 5723 5721 5718 5716 5713 5711 5709 5706 5704 5702 5699 5697 5695 5693 5691 5689 5687 5685 5683 5682 5681 5679 5678 5677 5676 5675 5674 5674 5673 5673 5672 5671
5748 5746 5744 5742 5740 5738 5736 5733 5731 5729 5726 5724 5721 5719 5716 5714 5712 5710 5707 5705 5703 5701 5698 5696 5694 5691 5689 5687 5685 5683 5682 5680 5679 5677 5676 5674 5673 5672 5671 5670 5669 5669 5668
5748 5746 5744 5742 5740 5738 5736 5733 5731 5729 5726 5724 5721 5719 5717 5715 5713 5711 5708 5706 5704 5701 5699 5696 5694 5692 5689 5687 5685 5683 5681 5679 5677 5676 5674 5672 5671 5670 5668 5667 5666 5665 5663
5748 5746 5744 5742 5740 5738 5735 5733 5730 5728 5726 5723 5721 5719 5717 5715 5713 5710 5708 5706 5703 5701 5698 5696 5693 5691 5689 5687 5684 5682 5680 5677 5675 5673 5671 5670 5668 5666 5665 5663 5662 5660 5658
5747 5745 5743 5741 5739 5737 5734 5732 5729 5727 5724 5722 5720 5718 5716 5714 5712 5709 5707 5705 5702 5700 5697 5695 5692 5690 5687 5685 5682 5680 5677 5675 5673 5670 5668 5666 5664 5662 5660 5659 5657 5655 5653
5747 5745 5743 5741 5738 5736 5733 5730 5728 5725 5723 5721 5719 5716 5714 5712 5710 5708 5705 5703 5700 5698 5695 5693 5690 5687 5685 5682 5679 5677 5674 5672 5669 5667 5664 5662 5660 5658 5655 5653 5651 5649 5647
5746 5744 5742 5739 5737 5734 5731 5729 5726 5723 5721 5719 5717 5714 5712 5710 5707 5705 5703 5700 5698 5695 5692 5689 5687 5684 5681 5679 5676 5673 5670 5668 5665 5662 5660 5657 5655 5652 5650 5647 5645 5642 5640
5744 5742 5740 5737 5735 5732 5729 5726 5724 5721 5719 5716 5714 5712 5709 5707 5704 5702 5699 5696 5694 5691 5688 5685 5683 5680 5677 5674 5671 5668 5665 5662 5659 5656 5654 5651 5648 5646 5643 5640 5637 5635 5632
5742 5740 5738 5735 5732 5729 5726 5724 5721 5718 5716 5713 5711 5708 5706 5703 5700 5698 5695 5692 5689 5687 5684 5681 5678 5674 5671 5668 5665 5662 5659 5656 5653 5650 5647 5644 5641 5638 5635 5633 5630 5627 5624
Wind_Speed
20 22 22 23 23 23 23 23 22 22 23 23 23 22 22 22 22 21 21 21 22 22 22 22 23 22 23 22 23 24 25 25 26 26 26 26 27 27 28 29 29 29 29
20 22 22 22 22 22 22 22 22 22 22 22 22 22 22 22 21 21 20 20 21 21 21 22 22 22 22 22 22 23 24 23 23 24 25 25 25 26 26 27 27 28 28
20 20 21 21 21 21 21 22 22 22 21 21 21 21 22 21 21 20 20 20 20 21 21 21 21 20 20 21 21 21 21 22 22 22 23 24 24 24 24 25 26 26 27
19 19 20 20 20 20 20 21 21 20 20 21 21 21 21 21 20 20 20 20 20 19 19 18 18 18 19 19 20 20 20 21 21 22 22 22 22 23 23 23 23 24 25
17 17 18 19 19 19 18 19 19 19 19 20 20 20 19 18 19 19 19 19 18 16 16 15 16 16 17 18 18 18 19 20 20 20 20 20 20 21 21 21 22 22 22
15 16 17 17 17 17 17 18 18 18 18 19 19 18 18 18 18 17 16 16 14 14 14 15 15 16 17 17 17 17 18 18 18 18 19 19 19 19 19 20 20 20 21
14 15 16 16 16 16 16 17 17 17 17 17 18 17 17 17 16 16 14 13 13 13 13 14 15 15 15 16 16 16 16 16 16 16 16 16 17 17 17 17 18 18 18
14 15 15 16 15 15 15 16 16 15 15 16 16 16 16 15 15 14 13 13 12 12 13 13 13 13 13 13 13 13 13 13 13 14 14 14 14 14 15 15 15 16 16
13 14 14 15 15 15 15 15 14 14 15 16 16 15 15 14 13 13 13 12 12 12 12 12 12 11 11 11 11 10 10 10 11 12 12 13 12 12 12 12 13 14 14
12 13 13 13 13 13 13 13 13 14 14 15 15 15 14 14 13 13 13 12 12 11 10 10 10 9 9 9 8 8 8 8 9 9 10 10 9 9 10 10 11 12 13
12 12 12 13 13 13 12 12 13 13 14 15 15 14 14 14 14 13 12 12 11 10 10 9 8 8 7 6 6 7 7 7 7 7 7 8 8 8 9 9 10 11 12
11 11 12 12 12 12 12 12 13 13 14 14 14 14 14 13 13 13 12 11 11 10 9 8 8 6 5 5 5 6 6 6 6 6 7 7 7 7 7 8 9 10 10
11 11 11 12 12 11 11 12 13 13 13 14 14 13 13 13 13 13 13 12 11 10 9 8 8 7 6 5 5 4 4 4 4 5 5 5 6 6 7 7 8 8 8
10 10 11 11 11 11 12 12 13 13 13 14 14 14 14 14 14 13 13 12 11 10 9 9 8 8 7 5 4 4 4 4 4 4 4 5 6 6 6 7 7 8 8
9 9 10 10 11 12 12 12 12 13 13 13 14 14 14 14 14 13 13 13 12 10 10 9 8 8 7 7 6 5 5 4 3 4 5 5 6 6 6 6 6 7 7
8 9 10 11 11 11 12 13 13 12 13 13 13 13 13 13 14 13 13 13 12 11 10 10 9 8 8 7 7 6 5 4 3 3 4 5 6 6 6 7 7 8 8
9 9 10 11 11 12 12 12 12 12 13 13 13 13 13 13 13 13 14 13 13 12 11 11 10 9 9 8 7 7 6 5 5 6 6 6 6 7 7 8 8 9 10
9 10 11 11 12 12 12 12 12 12 12 12 13 13 13 13 13 13 13 13 13 12 12 11 11 10 10 10 9 8 7 7 7 7 8 8 7 8 9 10 10 11 12
9 10 11 11 12 12 12 12 12 12 12 12 12 12 13 13 13 13 13 13 13 13 12 12 12 11 11 11 10 10 9 9 9 9 9 9 9 9 10 11 11 12 13
9 10 11 11 12 12 12 12 12 13 13 13 13 12 12 12 12 12 12 13 13 13 13 13 13 12 11 11 11 11 11 11 10 10 10 10 10 11 11 12 13 13 15
10 10 11 12 12 12 13 13 13 13 13 13 13 12 12 12 13 13 13 13 13 14 14 13 13 13 12 12 12 12 12 12 12 12 12 12 12 13 13 14 15 15 16
10 11 12 12 13 13 14 14 14 14 14 14 13 12 12 13 13 14 14 14 14 14 14 14 15 14 14 14 15 14 14 14 14 14 14 14 15 16 17 17 17 18 18
11 11 12 13 14 14 15 15 15 15 14 14 14 14 14 14 15 15 15 15 16 16 16 16 16 16 17 17 16 16 16 16 17 17 17 17 18 18 19 19 20 20 20
11 12 13 14 15 16 16 16 16 15 15 15 15 16 16 16 16 17 17 17 17 18 18 18 18 18 18 19 19 19 19 19 20 20 21 20 20 21 22 22 22 23 23
13 14 15 16 16 17 17 17 17 16 16 17 17 17 17 17 18 19 19 19 19 19 20 20 20 20 21 21 21 22 22 22 23 23 23 23 23 23 24 24 24 25 25
15 16 17 17 17 17 18 18 17 17 18 18 18 19 19 20 20 20 20 20 21 21 21 22 23 23 23 23 24 24 25 25 25 25 25 25 25 26 26 27 27 27 28
Wind_Direction
303 303 302 302 303 301 302 302 302 305 306 305 302 301 300 300 298 295 291 287 285 283 280 277 273 270 268 268 267 264 262 261 259 257 256 256 257 256 254 254 254 254 254
308 308 306 307 307 306 305 303 304 304 306 306 303 300 300 299 296 295 293 290 288 285 282 279 275 272 270 269 269 267 265 263 261 259 257 258 257 256 254 254 254 253 254
309 310 311 311 309 308 307 306 305 306 307 307 305 303 302 300 297 294 292 291 289 287 284 280 277 274 271 270 268 267 265 263 262 261 260 259 258 257 256 256 256 254 254
307 312 313 313 312 309 309 310 310 310 309 309 309 307 306 303 300 296 294 291 289 287 285 282 279 275 273 272 268 266 265 264 262 261 260 258 258 257 257 255 255 255 256
307 312 315 315 315 314 314 314 315 314 314 313 313 311 309 307 305 300 296 293 289 286 287 284 282 279 277 276 273 270 268 266 264 264 261 259 259 259 258 257 255 255 257
311 315 317 319 319 318 318 318 320 320 320 319 318 316 314 311 309 306 302 300 296 294 291 287 284 281 279 277 276 274 271 268 265 265 263 261 260 259 259 257 255 256 259
316 318 318 318 319 319 319 320 321 324 324 324 323 322 320 317 314 313 311 309 306 302 297 292 289 286 283 280 278 276 272 268 267 267 265 263 258 257 257 255 255 256 258
319 320 320 319 321 322 321 322 324 328 333 335 334 332 329 327 325 324 321 317 313 308 306 303 297 291 284 284 280 277 273 267 262 261 262 263 261 260 256 256 255 256 257
322 323 324 325 323 322 324 325 329 333 337 339 340 341 340 338 335 333 331 328 323 317 314 311 306 299 292 286 284 281 274 267 263 263 261 262 263 261 257 255 255 256 258
328 330 333 334 333 332 333 335 337 339 340 341 344 346 348 346 344 340 339 337 335 331 325 318 313 308 302 295 291 285 277 270 267 264 261 262 263 261 256 254 256 259 260
334 336 339 340 341 341 340 341 343 343 343 345 348 351 353 353 352 351 350 348 347 347 341 334 327 320 313 307 301 293 285 278 271 268 262 261 259 257 258 257 257 260 260
339 341 343 343 343 343 344 346 349 350 351 351 353 354 356 358 360 360 358 358 358 356 355 355 347 335 328 322 312 302 289 280 272 270 269 264 262 265 267 269 267 263 264
340 343 346 347 348 350 352 353 354 355 355 356 358 359 359 360 0 2 3 1 0 2 3 3 1 357 349 340 332 320 305 290 278 273 271 272 274 277 275 272 272 270 271
342 346 349 351 357 359 357 353 353 355 356 358 1 2 1 359 359 0 2 2 3 5 8 7 7 4 358 352 346 337 323 307 285 278 275 278 281 281 280 279 277 274 276
347 351 355 357 358 358 357 353 352 355 356 358 358 360 1 3 3 4 5 7 6 8 11 12 9 9 10 11 5 356 342 330 314 296 286 278 276 278 281 282 281 280 284
1 359 359 358 358 357 357 357 357 357 357 357 359 1 3 5 9 12 12 12 11 9 11 12 12 12 11 13 9 2 355 344 328 315 308 294 285 285 287 287 289 287 286
6 2 0 0 360 357 357 359 0 360 358 360 3 4 5 6 8 11 13 12 13 15 15 15 15 16 14 11 5 359 353 343 333 330 326 318 307 298 294 291 291 289 289
4 1 359 359 359 359 358 358 359 360 1 3 3 4 4 5 7 9 12 14 16 17 17 15 13 10 6 1 358 355 350 343 335 330 327 320 311 304 299 295 293 293 295
3 2 0 359 359 359 357 355 356 356 357 358 358 359 360 3 6 6 7 9 9 9 9 8 6 2 359 356 353 349 346 340 334 329 325 319 312 308 304 300 297 296 297
358 358 359 358 357 356 354 352 351 351 350 350 352 353 355 356 359 360 359 0 359 358 358 356 355 354 353 350 347 342 338 334 330 327 324 317 310 307 305 302 298 295 296
354 353 353 353 353 352 351 349 347 346 345 345 346 347 349 350 348 347 346 348 349 349 347 345 344 342 340 338 337 335 332 329 325 322 319 313 310 308 305 302 298 296 295
350 350 351 351 350 348 347 345 343 341 341 340 341 343 343 341 339 338 338 338 340 340 339 337 336 334 331 328 327 326 325 324 322 320 316 310 306 304 303 301 299 298 296
346 347 347 347 346 345 342 340 337 337 338 339 337 335 334 332 330 331 332 332 332 331 331 330 329 328 326 325 324 322 321 320 317 314 312 309 306 305 303 302 300 299 298
342 341 341 341 340 339 338 337 336 335 335 334 332 330 327 325 323 323 324 325 327 327 326 326 325 323 321 320 319 317 315 313 312 310 309 308 306 305 303 302 301 299 297
336 336 336 336 335 335 335 334 333 331 329 327 326 325 323 321 319 317 318 318 319 321 321 321 320 319 316 315 314 313 311 310 309 308 307 306 304 303 301 300 299 298 298
333 333 332 332 331 331 331 331 330 328 327 325 322 322 321 319 318 317 316 316 317 318 317 316 316 316 314 311 310 310 309 308 307 306 305 304 302 301 300 299 298 298 297